Location: Home
(42.5358°N, 72.7383°W)
Time: 05:38:32
(UTC-05:00)

Explorer 11/Cluster Stage 4 - Pass Details

Date: 07 December 2021
Orbit: 467 x 1255 km, 28.8° (Epoch: 25 January)

Event Time Altitude Azimuth Distance (km) Brightness Sun altitude
Rises 01:05:05 0° 229° (SW) 3,143 - -63.7°
Reaches altitude 10° 01:07:56 10° 212° (SSW) 2,365 - -63.3°
Maximum altitude 01:12:00 20° 166° (SSE) 1,943 - -62.7°
Drops below altitude 10° 01:16:40 10° 122° (ESE) 2,776 - -62.1°
Sets 01:20:22 0° 108° (ESE) 3,877 - -61.5°
